Satellite: CP6
Catalog number: 35004
Epoch time:      10336.88594934
Element set:     453
Inclination:      040.4625 deg
RA of node:       262.5510 deg
Eccentricity:    0.0023670
Arg of perigee:   223.9694 deg
Mean anomaly:     135.9144 deg
Mean motion:   15.51465447 rev/day
Decay rate:     1.9161e-04 rev/day^2
Epoch rev:            8687
Checksum:              311

Satellite: AEROCUB3
Catalog number: 35005
Epoch time:      10336.86807023
Element set:     544
Inclination:      040.4630 deg
RA of node:       242.7671 deg
Eccentricity:    0.0025280
Arg of perigee:   248.2275 deg
Mean anomaly:     111.5583 deg
Mean motion:   15.77717362 rev/day
Decay rate:    2.17953e-03 rev/day^2
Epoch rev:            8709
Checksum:              296

Satellite: METEOR-M
Catalog number: 35865
Epoch time:      10336.67427407
Element set:     888
Inclination:      098.7363 deg
RA of node:       029.0715 deg
Eccentricity:    0.0001579
Arg of perigee:   238.5381 deg
Mean anomaly:     121.5610 deg
Mean motion:   14.21833398 rev/day
Decay rate:       1.76e-06 rev/day^2
Epoch rev:            6266
Checksum:              315

Satellite: RS-38
Catalog number: 35869
Epoch time:      10336.69752249
Element set:     900
Inclination:      098.7351 deg
RA of node:       029.1354 deg
Eccentricity:    0.0003825
Arg of perigee:   237.1921 deg
Mean anomaly:     122.8849 deg
Mean motion:   14.21995008 rev/day
Decay rate:       1.77e-06 rev/day^2
Epoch rev:            6267
Checksum:              327

/EX


_______________________________________________
Via the Keps mailing list courtesy of AMSAT-NA
http://amsat.org/mailman/listinfo/keps

--- ViaMAIL!/WC v1.60d
 * Origin: Chowdanet (401-724-4410) telnet://chowdanet.com  (1:323/120)